Content
SEND FEEDBACK

Daily
Averages
Monthly
Summary
United States of America

HAMPTON, IOWA


Home > North America > United States > Iowa
Elevation: 1086 feet     Latitude: 42 45N     Longitude: 093 11W

WEATHER
 
SELECT A DAY
Number of Records: 166,104;   Date Range: 6/29/07 - 10/20/14
 
SHARE

PRINT THIS DATA

[ ← Previous Day ]
WEATHER ALMANAC - FEBRUARY 13, 2013
[ Next Day → ]
[ °C ]   °F
Weather ElementAverageHighLow
Temperature34.4 °F44.2 °F (3:15 pm)24.4 °F (7:35 am)
Dewpoint28.8 °F33.4 °F (3:15 pm)21.9 °F (7:35 am)
Humidity80.6 %91 % (1:15 am)64 % (2:55 pm)
Barometer29.74 in29.85 in (12:35 am)29.64 in (9:15 pm)
Wind Speed9.7 mph17.3 mph (11:55 pm)
Wind Gust21.9 mph (11:55 pm)
Weather ElementAverage
Visibility10 mi
Wind DirectionWSW (248.8 °)

Weather ElementTotal
Precipitation---
Heating Degree Days30.7 (Base 65)
Averaged from 68 records on February 13, 2013
WEATHER CONDITIONS BREAKOUT
WIND DIRECTION BREAKOUT
WEATHER BY HOUR - FEBRUARY 13, 2013
[ °C ]   °F
Local TimeTemperatureDewpointHumidityBarometerVisibilityWind DirectionWind SpeedGust SpeedPrecipitationEventsConditions
12:35 AM29.1 °F26.2 °F89 %29.85 in10.0 miWest (260°)6.9 mphClear
12:55 AM29.1 °F26.1 °F88 %29.84 in10.0 miWest (280°)6.9 mphClear
1:15 AM28.4 °F26.1 °F91 %29.84 in10.0 miWNW (290°)8.1 mphClear
1:35 AM29.1 °F26.1 °F88 %29.84 in10.0 miWest (280°)8.1 mphClear
1:55 AM28.4 °F25.5 °F89 %29.84 in10.0 miWest (280°)8.1 mphClear
2:15 AM28.2 °F25.3 °F89 %29.83 in10.0 miWest (280°)5.8 mphClear
2:35 AM27.9 °F25.2 °F90 %29.82 in10.0 miWest (280°)8.1 mphClear
2:55 AM27.7 °F24.8 °F89 %29.82 in10.0 miWest (270°)6.9 mphClear
3:15 AM27.3 °F24.8 °F90 %29.81 in10.0 miWest (270°)6.9 mphClear
3:35 AM27.5 °F24.8 °F90 %29.81 in10.0 miWest (270°)8.1 mphClear
3:55 AM27.3 °F24.4 °F89 %29.80 in10.0 miWest (270°)8.1 mphClear
4:15 AM27.1 °F24.1 °F88 %29.80 in10.0 miWest (270°)6.9 mphClear
4:35 AM26.2 °F23.7 °F90 %29.81 in10.0 miWest (280°)6.9 mphClear
4:55 AM26.2 °F23.7 °F90 %29.80 in10.0 miWest (280°)6.9 mphClear
5:15 AM26.2 °F23.5 °F90 %29.79 in10.0 miWest (280°)6.9 mphClear
5:35 AM25.7 °F23.0 °F89 %29.79 in10.0 miWest (280°)5.8 mphClear
5:55 AM25.2 °F22.8 °F91 %29.79 in10.0 miWest (280°)5.8 mphClear
6:15 AM25.2 °F22.8 °F91 %29.79 in10.0 miWest (280°)6.9 mphClear
6:35 AM25.5 °F23.0 °F90 %29.79 in10.0 miWNW (300°)9.2 mphClear
6:55 AM25.5 °F22.6 °F89 %29.79 in10.0 miWNW (300°)8.1 mphClear
7:35 AM24.4 °F21.9 °F90 %29.78 in10.0 miWest (280°)5.8 mphClear
7:55 AM25.9 °F23.0 °F89 %29.79 in10.0 miWest (280°)8.1 mphMostly Cloudy
8:35 AM27.9 °F24.4 °F87 %29.79 in10.0 miWest (270°)6.9 mphScattered Clouds
8:55 AM29.1 °F25.0 °F85 %29.79 in10.0 miWest (270°)9.2 mphClear
9:15 AM30.0 °F25.7 °F84 %29.79 in10.0 miWest (270°)11.5 mphClear
9:35 AM30.7 °F26.2 °F83 %29.79 in10.0 miWest (260°)12.7 mphClear
10:15 AM33.1 °F27.7 °F81 %29.79 in10.0 miWest (260°)10.4 mphClear
10:44 AM33.8 °F28.4 °F81 %29.78 inWest (260°)9.2 mph
10:55 AM33.4 °F28.4 °F82 %29.78 in10.0 miWSW (250°)9.2 mph
11:15 AM34.9 °F29.7 °F81 %29.78 in10.0 miWest (260°)8.1 mphClear
11:35 AM36.3 °F29.8 °F77 %29.78 in10.0 miWSW (240°)10.4 mphClear
11:55 AM36.7 °F30.0 °F77 %29.77 in10.0 miWSW (240°)11.5 mphClear
12:15 PM37.4 °F30.7 °F77 %29.77 in10.0 miWSW (250°)13.8 mphClear
12:35 PM38.1 °F30.9 °F75 %29.76 in10.0 miWSW (250°)13.8 mphClear
12:55 PM38.8 °F31.3 °F74 %29.76 in10.0 miWest (260°)13.8 mphClear
1:15 PM39.9 °F32.2 °F74 %29.75 in10.0 miWest (260°)11.5 mphClear
1:35 PM41.0 °F32.4 °F71 %29.75 in10.0 miWest (260°)11.5 mphClear
1:55 PM41.5 °F32.0 °F69 %29.74 in10.0 miWSW (250°)13.8 mphClear
2:15 PM42.4 °F32.0 °F67 %29.73 in10.0 miWSW (250°)13.8 mphClear
2:35 PM42.8 °F32.2 °F66 %29.72 in10.0 miWSW (250°)10.4 mphClear
2:55 PM43.3 °F32.0 °F64 %29.72 in10.0 miSW (230°)11.5 mphClear
3:15 PM44.2 °F33.4 °F66 %29.72 in10.0 miWSW (240°)12.7 mphScattered Clouds
3:35 PM43.7 °F32.5 °F65 %29.71 in10.0 miSW (230°)11.5 mphMostly Cloudy
3:55 PM43.7 °F33.3 °F67 %29.71 in10.0 miSW (230°)10.4 mphScattered Clouds
4:15 PM43.5 °F33.4 °F68 %29.71 in10.0 miSW (220°)9.2 mphClear
4:35 PM42.3 °F33.4 °F71 %29.70 in10.0 miSSW (210°)8.1 mphClear
4:55 PM41.2 °F32.9 °F72 %29.69 in10.0 miSSW (200°)8.1 mphClear
5:15 PM39.9 °F32.9 °F76 %29.69 in10.0 miSouth (190°)6.9 mphScattered Clouds
5:35 PM38.3 °F32.7 °F80 %29.69 in10.0 miSouth (180°)8.1 mphMostly Cloudy
5:55 PM37.6 °F32.2 °F81 %29.69 in10.0 miSouth (180°)8.1 mphOvercast
6:15 PM37.4 °F32.0 °F81 %29.69 in10.0 miSouth (180°)9.2 mphMostly Cloudy
6:35 PM37.0 °F32.0 °F82 %29.68 in10.0 miSouth (190°)9.2 mphOvercast
6:55 PM37.8 °F31.8 °F79 %29.67 in10.0 miSouth (190°)9.2 mphOvercast
7:15 PM38.1 °F31.6 °F77 %29.67 in10.0 miSouth (190°)10.4 mphOvercast
7:35 PM38.5 °F31.6 °F76 %29.67 in10.0 miSSW (200°)9.2 mphOvercast
7:55 PM39.6 °F31.3 °F72 %29.66 in10.0 miSW (220°)9.2 mph19.6 mphOvercast
8:15 PM39.0 °F31.6 °F75 %29.66 in10.0 miSW (230°)9.2 mphOvercast
8:35 PM38.7 °F31.6 °F76 %29.65 in10.0 miSW (220°)8.1 mphOvercast
8:55 PM37.9 °F31.8 °F79 %29.65 in10.0 miSW (230°)10.4 mphOvercast
9:15 PM38.5 °F32.0 °F78 %29.64 in10.0 miSW (220°)8.1 mphOvercast
9:35 PM38.3 °F31.8 °F77 %29.64 in10.0 miSW (230°)11.5 mphOvercast
9:55 PM38.3 °F32.0 °F78 %29.64 in10.0 miWSW (250°)10.4 mphOvercast
10:15 PM38.1 °F31.6 °F77 %29.64 in10.0 miWSW (240°)12.7 mphOvercast
10:35 PM37.4 °F31.1 °F78 %29.64 in10.0 miWSW (240°)15.0 mphMostly Cloudy
10:55 PM36.3 °F30.9 °F81 %29.64 in10.0 miWSW (250°)15.0 mphScattered Clouds
11:15 PM37.0 °F30.9 °F79 %29.65 in10.0 miWest (260°)15.0 mphScattered Clouds
11:35 PM36.0 °F30.7 °F81 %29.65 in10.0 miWest (260°)15.0 mph20.7 mphClear
11:55 PM36.0 °F31.1 °F82 %29.65 in10.0 miWest (260°)17.3 mph21.9 mphClear
Hourly data recorded from KIFA, located miles away from Hampton, Iowa







STORIES FROM OUR PARTNERS